Cherokee, IA

8:53 PM CST on December 14, 2019 (GMT -0600)
Cherokee Municipal

Weather History for KCKP - November, 2019

Change the Weather History Date:

Thursday, November 14, 2019

  Actual Average Record
Temperature  
Mean Temperature 26 °F -  
Max Temperature 38 °F 43 °F 70 °F (1953)
Min Temperature 15 °F 23 °F -17 °F (1959)
Degree Days  
Heating Degree Days 38    
Moisture  
Dew Point 20 °F    
Average Humidity 78    
Maximum Humidity 99    
Minimum Humidity 42    
Precipitation  
Precipitation 0.00 in - - ()
Sea Level Pressure  
Sea Level Pressure 30.27 in    
Wind  
Wind Speed 4 mph ()    
Max Wind Speed 10 mph    
Max Gust Speed -    
Visibility 9.9 miles    
Events      
Averages and records for this station are not official NWS values.
T = Trace of Precipitation, MM = Missing Value Source: Averaged Metar Reports

Daily Weather History Graph

Daily Weather History Graph

Search for Another Location

Airport or City:

Astronomy

Nov. 14, 2019 Rise Set
Actual Time 7:12 AM CST 5:00 PM CST
Civil Twilight 6:42 AM CST 5:30 PM CST
Nautical Twilight 6:07 AM CST 6:04 PM CST
Astronomical Twilight 5:34 AM CST 6:38 PM CST
Moon 6:45 PM CST (11/14) 9:10 AM CST (11/14)
Length of Visible Light 10h 48m
Length of Day
9h 47m
Waning Gibbous, 95% of the Moon is Illuminated
Nov 14
Waning Gibbous
Nov 19
Last Quarter
Nov 26
New
Dec 4
First Quarter
Dec 11
Full

Hourly Weather History & Observations

Time (CST) Temp. Windchill Dew Point Humidity Pressure Visibility Wind Dir Wind Speed Gust Speed Precip Events Conditions
12:15 AM 25.2 °F 20.9 °F 22.8 °F 91% 30.14 in 10.0 mi North 3.5 mph - N/A   Clear
12:35 AM 23.9 °F 19.5 °F 22.1 °F 93% 30.14 in 10.0 mi North 3.5 mph - N/A   Clear
12:55 AM 23.7 °F 19.3 °F 21.7 °F 92% 30.15 in 10.0 mi NNW 3.5 mph - N/A   Clear
1:15 AM 23.0 °F 18.4 °F 21.2 °F 93% 30.16 in 10.0 mi NNW 3.5 mph - N/A   Clear
1:35 AM 22.8 °F 15.5 °F 21.0 °F 93% 30.16 in 10.0 mi North 5.8 mph - N/A   Clear
1:55 AM 22.1 °F 15.9 °F 20.5 °F 93% 30.16 in 10.0 mi North 4.6 mph - N/A   Clear
2:15 AM 22.3 °F 16.1 °F 20.8 °F 94% 30.17 in 10.0 mi North 4.6 mph - N/A   Clear
2:35 AM 21.6 °F 16.8 °F 19.9 °F 93% 30.18 in 10.0 mi North 3.5 mph - N/A   Clear
3:15 AM 19.4 °F 12.8 °F 18.5 °F 96% 30.19 in 10.0 mi North 4.6 mph - N/A   Clear
3:35 AM 19.0 °F 13.9 °F 18.1 °F 96% 30.19 in 10.0 mi NNE 3.5 mph - N/A   Clear
3:55 AM 18.5 °F - 17.6 °F 96% 30.20 in 10.0 mi Calm Calm - N/A   Clear
4:15 AM 17.8 °F - 17.2 °F 98% 30.21 in 10.0 mi Calm Calm - N/A   Clear
4:35 AM 17.6 °F - 17.1 °F 98% 30.21 in 10.0 mi Calm Calm - N/A   Clear
4:55 AM 17.2 °F 11.9 °F 16.7 °F 98% 30.23 in 10.0 mi North 3.5 mph - N/A   Clear
5:15 AM 16.9 °F - 16.7 °F 99% 30.23 in 10.0 mi Calm Calm - N/A   Clear
5:35 AM 16.7 °F - 16.3 °F 98% 30.24 in 10.0 mi Calm Calm - N/A   Clear
5:55 AM 16.7 °F - 16.5 °F 99% 30.25 in 10.0 mi Calm Calm - N/A   Clear
6:55 AM 15.8 °F 10.2 °F 15.4 °F 98% 30.27 in 10.0 mi NNW 3.5 mph - N/A   Clear
7:15 AM 16.0 °F - 15.4 °F 98% 30.28 in 10.0 mi Calm Calm - N/A   Scattered Clouds
7:35 AM 15.4 °F - 15.3 °F 99% 30.28 in 7.0 mi Calm Calm - N/A   Scattered Clouds
7:55 AM 16.2 °F - 15.8 °F 98% 30.29 in 7.0 mi Calm Calm - N/A   Scattered Clouds
8:15 AM 17.4 °F - 16.7 °F 97% 30.29 in 10.0 mi Calm Calm - N/A   Scattered Clouds
8:35 AM 18.3 °F - 16.9 °F 94% 30.31 in 10.0 mi Calm Calm - N/A   Clear
8:55 AM 19.9 °F 13.4 °F 18.3 °F 93% 30.31 in 10.0 mi WNW 4.6 mph - N/A   Clear
9:15 AM 21.7 °F 15.5 °F 19.6 °F 91% 30.32 in 10.0 mi NW 4.6 mph - N/A   Clear
9:35 AM 23.0 °F 18.4 °F 20.3 °F 89% 30.32 in 10.0 mi NNW 3.5 mph - N/A   Clear
10:15 AM 24.8 °F 19.1 °F 20.7 °F 84% 30.32 in 10.0 mi WNW 4.6 mph - N/A   Clear
10:35 AM 25.7 °F 18.0 °F 20.5 °F 81% 30.32 in 10.0 mi West 6.9 mph - N/A   Clear
10:55 AM 27.0 °F 18.7 °F 21.4 °F 79% 30.33 in 10.0 mi WNW 8.1 mph - N/A   Clear
11:15 AM 28.2 °F 21.0 °F 21.2 °F 75% 30.32 in 10.0 mi WNW 6.9 mph - N/A   Clear
11:35 AM 29.3 °F 23.2 °F 20.3 °F 69% 30.32 in 10.0 mi WNW 5.8 mph - N/A   Clear
11:55 AM 30.0 °F 22.4 °F 20.5 °F 68% 30.31 in 10.0 mi West 8.1 mph - N/A   Clear
12:15 PM 30.9 °F 26.2 °F 20.3 °F 65% 30.31 in 10.0 mi WNW 4.6 mph - N/A   Clear
12:35 PM 32.0 °F 24.8 °F 19.6 °F 60% 30.30 in 10.0 mi West 8.1 mph - N/A   Clear
12:55 PM 32.7 °F 25.0 °F 19.0 °F 57% 30.30 in 10.0 mi West 9.2 mph - N/A   Clear
1:15 PM 34.2 °F 26.8 °F 18.1 °F 52% 30.30 in 10.0 mi West 9.2 mph - N/A   Clear
1:35 PM 35.1 °F 27.4 °F 18.7 °F 51% 30.29 in 10.0 mi West 10.4 mph - N/A   Clear
1:55 PM 35.8 °F 29.4 °F 17.2 °F 47% 30.29 in 10.0 mi West 8.1 mph - N/A   Clear
2:15 PM 37.2 °F 31.2 °F 17.1 °F 44% 30.29 in 10.0 mi WNW 8.1 mph - N/A   Clear
2:35 PM 37.4 °F 31.4 °F 16.7 °F 43% 30.28 in 10.0 mi WNW 8.1 mph - N/A   Clear
2:55 PM 37.6 °F 31.0 °F 17.1 °F 43% 30.28 in 10.0 mi West 9.2 mph - N/A   Clear
3:15 PM 38.3 °F 32.5 °F 16.7 °F 42% 30.28 in 10.0 mi West 8.1 mph - N/A   Clear
3:35 PM 38.3 °F 33.2 °F 17.1 °F 42% 30.28 in 10.0 mi WSW 6.9 mph - N/A   Clear
3:55 PM 37.8 °F 32.5 °F 18.0 °F 45% 30.28 in 10.0 mi WSW 6.9 mph - N/A   Clear
4:15 PM 37.2 °F 33.6 °F 19.2 °F 48% 30.28 in 10.0 mi WSW 4.6 mph - N/A   Clear
4:55 PM 33.1 °F 27.7 °F 19.9 °F 59% 30.28 in 10.0 mi SW 5.8 mph - N/A   Clear
5:15 PM 31.1 °F 25.4 °F 20.3 °F 64% 30.28 in 10.0 mi SSW 5.8 mph - N/A   Clear
5:35 PM 30.4 °F 24.5 °F 20.3 °F 66% 30.28 in 10.0 mi SSW 5.8 mph - N/A   Clear
5:55 PM 30.2 °F 24.3 °F 20.3 °F 67% 30.28 in 10.0 mi SSW 5.8 mph - N/A   Clear
6:15 PM 28.0 °F 21.7 °F 20.5 °F 73% 30.28 in 10.0 mi SSW 5.8 mph - N/A   Clear
6:35 PM 28.0 °F 20.8 °F 21.2 °F 76% 30.27 in 10.0 mi SSW 6.9 mph - N/A   Clear
6:55 PM 28.9 °F 22.8 °F 21.4 °F 73% 30.28 in 10.0 mi South 5.8 mph - N/A   Clear
7:15 PM 29.7 °F 22.8 °F 21.9 °F 73% 30.28 in 10.0 mi SSW 6.9 mph - N/A   Clear
7:35 PM 29.3 °F 22.3 °F 22.1 °F 75% 30.28 in 10.0 mi South 6.9 mph - N/A   Clear
7:55 PM 29.3 °F 23.2 °F 22.1 °F 75% 30.28 in 10.0 mi South 5.8 mph - N/A   Clear
8:15 PM 28.8 °F 21.7 °F 22.1 °F 76% 30.28 in 10.0 mi SSW 6.9 mph - N/A   Clear
8:35 PM 28.8 °F 21.7 °F 22.5 °F 77% 30.28 in 10.0 mi SSW 6.9 mph - N/A   Clear
8:55 PM 28.9 °F 21.9 °F 23.0 °F 78% 30.29 in 10.0 mi SSW 6.9 mph - N/A   Clear
9:15 PM 28.9 °F 22.8 °F 22.8 °F 78% 30.29 in 10.0 mi South 5.8 mph - N/A   Clear
9:35 PM 28.4 °F 22.2 °F 22.8 °F 80% 30.29 in 10.0 mi South 5.8 mph - N/A   Clear
9:55 PM 28.4 °F 22.2 °F 23.0 °F 80% 30.29 in 10.0 mi SSW 5.8 mph - N/A   Clear
10:15 PM 28.4 °F 21.2 °F 23.5 °F 82% 30.29 in 10.0 mi SSW 6.9 mph - N/A   Clear
10:35 PM 27.3 °F 20.9 °F 23.7 °F 86% 30.28 in 10.0 mi SSW 5.8 mph - N/A   Clear
10:55 PM 27.0 °F 19.5 °F 23.5 °F 87% 30.29 in 10.0 mi SSW 6.9 mph - N/A   Clear
11:15 PM 27.7 °F 20.4 °F 24.1 °F 86% 30.29 in 10.0 mi SSW 6.9 mph - N/A   Clear
11:35 PM 27.1 °F 20.7 °F 23.4 °F 86% 30.29 in 10.0 mi SSW 5.8 mph - N/A   Clear
11:55 PM 25.7 °F 21.5 °F 22.8 °F 89% 30.29 in 10.0 mi South 3.5 mph - N/A   Clear